Latest news:   Tropical Cyclone Debbie is forming in the Coral Sea. Watch her form and move on our satellite image animations. Click Here Tuesday, 28 Mar 2017

OceanView Weather - Today's Weather Data

Time

Temp

Humid

Dew
Point
Feels
Like
Wind

Wind
Dir
Rain

Air Pres.

Solar
Rad.
UV Index

23:41 21.9°C 93% 20.8°C 25.3°C 2.6Kts ENE 0.0mm 1012.4hpa 0.0
23:39 21.9°C 93% 20.8°C 25.3°C 1.7Kts E 0.0mm 1012.4hpa 0.0
23:37 21.9°C 93% 20.7°C 25.3°C 2.6Kts ENE 0.0mm 1012.4hpa 0.0
23:35 21.9°C 93% 20.8°C 25.0°C 1.7Kts ENE 0.0mm 1012.4hpa 0.0
23:33 21.9°C 93% 20.7°C 25.3°C 1.7Kts ENE 0.0mm 1012.4hpa 0.0
23:31 21.9°C 93% 20.7°C 25.3°C 3.5Kts ENE 0.0mm 1012.4hpa 0.0
23:29 21.9°C 93% 20.7°C 25.3°C 0.9Kts E 0.0mm 1012.4hpa 0.0
23:27 21.9°C 93% 20.7°C 25.6°C 0.9Kts ENE 0.0mm 1012.5hpa 0.0
23:25 21.9°C 93% 20.7°C 25.6°C 2.6Kts ENE 0.0mm 1012.4hpa 0.0
23:23 21.9°C 93% 20.7°C 25.6°C 1.7Kts ENE 0.0mm 1012.4hpa 0.0
23:21 21.9°C 93% 20.7°C 25.3°C 0.9Kts ENE 0.0mm 1012.4hpa 0.0
23:17 21.9°C 93% 20.7°C 25.3°C 0.0Kts ENE 0.0mm 1012.4hpa 0.0
23:15 21.9°C 93% 20.7°C 25.3°C 1.7Kts ENE 0.0mm 1012.4hpa 0.0
23:13 21.9°C 93% 20.7°C 25.3°C 1.7Kts ENE 0.0mm 1012.4hpa 0.0
23:11 21.8°C 93% 20.7°C 25.2°C 3.5Kts NE 0.0mm 1012.4hpa 0.0
23:09 21.8°C 92% 20.5°C 25.1°C 3.5Kts ENE 0.0mm 1012.3hpa 0.0
23:07 21.8°C 93% 20.7°C 25.2°C 3.5Kts ENE 0.0mm 1012.4hpa 0.0
23:05 21.8°C 93% 20.7°C 25.2°C 0.9Kts ENE 0.0mm 1012.4hpa 0.0
23:03 21.8°C 92% 20.5°C 25.1°C 0.9Kts ENE 0.0mm 1012.4hpa 0.0
23:01 21.8°C 92% 20.5°C 25.1°C 2.6Kts ENE 0.0mm 1012.4hpa 0.0
22:59 21.9°C 92% 20.5°C 25.2°C 2.6Kts ENE 0.0mm 1012.5hpa 0.0
22:57 21.9°C 92% 20.5°C 25.2°C 1.7Kts E 0.0mm 1012.5hpa 0.0
22:55 21.9°C 92% 20.5°C 25.2°C 1.7Kts ENE 0.0mm 1012.5hpa 0.0
22:53 21.9°C 92% 20.5°C 25.2°C 3.5Kts ENE 0.0mm 1012.6hpa 0.0
22:51 21.8°C 92% 20.5°C 25.1°C 0.9Kts ENE 0.0mm 1012.7hpa 0.0
22:49 21.9°C 92% 20.5°C 25.2°C 0.9Kts ENE 0.0mm 1012.6hpa 0.0
22:47 21.9°C 92% 20.5°C 25.2°C 3.5Kts ENE 0.0mm 1012.7hpa 0.0
22:45 21.9°C 92% 20.5°C 25.2°C 0.9Kts ENE 0.0mm 1012.6hpa 0.0
22:43 21.9°C 92% 20.5°C 25.2°C 1.7Kts ENE 0.0mm 1012.6hpa 0.0
22:41 21.9°C 92% 20.5°C 24.9°C 1.7Kts ENE 0.0mm 1012.7hpa 0.0
22:39 21.9°C 92% 20.6°C 24.9°C 2.6Kts ENE 0.0mm 1012.7hpa 0.0
22:37 21.9°C 92% 20.5°C 24.9°C 1.7Kts ENE 0.0mm 1012.7hpa 0.0
22:35 21.9°C 92% 20.6°C 24.9°C 1.7Kts ENE 0.0mm 1012.7hpa 0.0
22:33 21.9°C 92% 20.6°C 24.9°C 1.7Kts ENE 0.0mm 1012.7hpa 0.0
22:31 21.9°C 92% 20.5°C 24.9°C 5.2Kts ENE 0.0mm 1012.8hpa 0.0
22:29 21.9°C 92% 20.5°C 24.9°C 2.6Kts ENE 0.0mm 1012.7hpa 0.0
22:27 21.9°C 92% 20.5°C 24.9°C 0.0Kts ENE 0.0mm 1012.8hpa 0.0
22:25 21.9°C 92% 20.5°C 24.9°C 0.9Kts ENE 0.0mm 1012.7hpa 0.0
22:23 21.9°C 92% 20.5°C 24.9°C 2.6Kts E 0.0mm 1012.7hpa 0.0
22:21 21.9°C 92% 20.5°C 24.9°C 3.5Kts ENE 0.0mm 1012.7hpa 0.0
22:19 21.9°C 92% 20.6°C 25.2°C 0.0Kts ENE 0.0mm 1012.8hpa 0.0
22:17 21.9°C 92% 20.6°C 25.2°C 4.3Kts ENE 0.0mm 1012.7hpa 0.0
22:15 21.9°C 92% 20.6°C 25.2°C 0.9Kts ENE 0.0mm 1012.7hpa 0.0
22:13 21.9°C 92% 20.6°C 25.2°C 3.5Kts ENE 0.0mm 1012.8hpa 0.0
22:11 21.9°C 92% 20.6°C 25.2°C 1.7Kts ENE 0.0mm 1012.8hpa 0.0
22:09 21.9°C 92% 20.6°C 25.2°C 0.0Kts NE 0.0mm 1012.8hpa 0.0
22:07 21.9°C 92% 20.6°C 25.2°C 2.6Kts ENE 0.0mm 1012.8hpa 0.0
22:05 21.9°C 92% 20.6°C 25.2°C 1.7Kts ENE 0.0mm 1012.8hpa 0.0
22:03 21.9°C 92% 20.6°C 25.2°C 0.9Kts ENE 0.0mm 1012.8hpa 0.0
22:01 21.9°C 92% 20.6°C 25.2°C 2.6Kts E 0.0mm 1012.8hpa 0.0
21:59 22.0°C 92% 20.6°C 25.4°C 1.7Kts ENE 0.0mm 1012.9hpa 0.0
21:57 22.0°C 92% 20.6°C 25.4°C 1.7Kts ENE 0.0mm 1012.9hpa 0.0
21:55 22.0°C 92% 20.6°C 25.4°C 2.6Kts E 0.0mm 1012.9hpa 0.0
21:53 22.0°C 92% 20.6°C 25.4°C 1.7Kts ENE 0.0mm 1012.9hpa 0.0
21:51 22.0°C 92% 20.6°C 25.1°C 0.0Kts ENE 0.0mm 1012.9hpa 0.0
21:49 22.0°C 92% 20.6°C 25.4°C 0.0Kts ENE 0.0mm 1012.9hpa 0.0
21:47 22.0°C 92% 20.6°C 25.1°C 0.9Kts ENE 0.0mm 1012.9hpa 0.0
21:45 22.0°C 92% 20.6°C 25.1°C 2.6Kts ENE 0.0mm 1012.9hpa 0.0
21:43 22.0°C 92% 20.6°C 25.1°C 1.7Kts ENE 0.0mm 1012.9hpa 0.0
21:41 22.0°C 92% 20.6°C 25.1°C 5.2Kts E 0.0mm 1012.9hpa 0.0
21:39 22.0°C 92% 20.6°C 25.1°C 0.9Kts ENE 0.0mm 1012.9hpa 0.0
21:37 22.0°C 92% 20.6°C 25.1°C 1.7Kts ENE 0.0mm 1012.8hpa 0.0
21:35 22.0°C 92% 20.6°C 25.1°C 1.7Kts ENE 0.0mm 1012.8hpa 0.0
21:33 22.0°C 92% 20.6°C 25.4°C 6.1Kts ENE 0.0mm 1012.8hpa 0.0
21:31 22.0°C 92% 20.6°C 25.1°C 0.0Kts ENE 0.0mm 1012.8hpa 0.0
21:29 21.9°C 92% 20.6°C 25.2°C 2.6Kts E 0.0mm 1012.8hpa 0.0
21:27 22.0°C 92% 20.6°C 25.4°C 1.7Kts E 0.0mm 1012.8hpa 0.0
21:25 21.9°C 92% 20.6°C 25.2°C 1.7Kts ENE 0.0mm 1012.9hpa 0.0
21:23 22.0°C 92% 20.6°C 25.4°C 0.9Kts ENE 0.0mm 1012.8hpa 0.0
21:21 21.9°C 92% 20.6°C 25.2°C 0.9Kts ENE 0.0mm 1012.8hpa 0.0
21:19 21.9°C 92% 20.6°C 25.2°C 0.0Kts E 0.0mm 1012.8hpa 0.0
21:17 21.9°C 92% 20.6°C 25.2°C 1.7Kts E 0.0mm 1012.8hpa 0.0
21:15 21.9°C 92% 20.6°C 25.2°C 3.5Kts ENE 0.0mm 1012.8hpa 0.0
21:13 21.9°C 92% 20.6°C 25.2°C 0.9Kts ENE 0.0mm 1012.9hpa 0.0
21:11 21.9°C 92% 20.6°C 25.2°C 3.5Kts ENE 0.0mm 1012.8hpa 0.0
21:09 21.9°C 92% 20.6°C 25.2°C 2.6Kts ENE 0.0mm 1012.9hpa 0.0
21:07 21.9°C 92% 20.6°C 25.2°C 0.9Kts ENE 0.0mm 1012.9hpa 0.0
21:05 21.9°C 92% 20.6°C 25.2°C 2.6Kts ENE 0.0mm 1012.8hpa 0.0
21:03 21.9°C 92% 20.6°C 25.2°C 0.9Kts ENE 0.0mm 1012.8hpa 0.0
21:01 21.9°C 92% 20.6°C 25.2°C 0.0Kts E 0.0mm 1012.8hpa 0.0
20:59 21.9°C 92% 20.6°C 25.2°C 1.7Kts ENE 0.0mm 1012.7hpa 0.0
20:57 21.9°C 92% 20.5°C 25.2°C 0.9Kts ENE 0.0mm 1012.7hpa 0.0
20:55 21.9°C 92% 20.5°C 25.2°C 0.9Kts ENE 0.0mm 1012.7hpa 0.0
20:53 21.9°C 92% 20.5°C 25.2°C 3.5Kts ENE 0.0mm 1012.7hpa 0.0
20:51 21.9°C 92% 20.5°C 25.2°C 2.6Kts ENE 0.0mm 1012.7hpa 0.0
20:49 21.9°C 92% 20.5°C 25.2°C 1.7Kts ENE 0.0mm 1012.8hpa 0.0
20:47 21.9°C 92% 20.5°C 25.2°C 1.7Kts ENE 0.0mm 1012.7hpa 0.0
20:45 21.9°C 92% 20.5°C 25.5°C 2.6Kts ENE 0.0mm 1012.7hpa 0.0
20:43 21.9°C 92% 20.5°C 25.5°C 0.9Kts ENE 0.0mm 1012.8hpa 0.0
20:41 21.8°C 92% 20.5°C 25.4°C 0.0Kts ENE 0.0mm 1012.7hpa 0.0
20:39 21.8°C 91% 20.3°C 25.3°C 2.6Kts ENE 0.0mm 1012.8hpa 0.0
20:37 21.8°C 91% 20.3°C 25.3°C 0.9Kts ENE 0.0mm 1012.8hpa 0.0
20:35 21.8°C 91% 20.3°C 25.0°C 0.0Kts ENE 0.0mm 1012.7hpa 0.0
20:33 21.8°C 91% 20.3°C 25.0°C 0.0Kts ENE 0.0mm 1012.7hpa 0.0
20:31 21.8°C 91% 20.2°C 25.0°C 2.6Kts ENE 0.0mm 1012.6hpa 0.0
20:29 21.8°C 91% 20.2°C 25.0°C 0.0Kts ENE 0.0mm 1012.6hpa 0.0
20:27 21.8°C 91% 20.3°C 25.0°C 1.7Kts ENE 0.0mm 1012.6hpa 0.0
20:25 21.8°C 91% 20.3°C 25.3°C 2.6Kts ENE 0.0mm 1012.6hpa 0.0
20:23 21.8°C 91% 20.3°C 25.3°C 0.9Kts ENE 0.0mm 1012.6hpa 0.0
20:21 21.8°C 91% 20.3°C 25.3°C 0.9Kts ENE 0.0mm 1012.6hpa 0.0
20:19 21.8°C 91% 20.3°C 25.0°C 0.9Kts ENE 0.0mm 1012.6hpa 0.0
20:17 21.8°C 91% 20.3°C 25.0°C 1.7Kts ENE 0.0mm 1012.5hpa 0.0
20:15 21.8°C 91% 20.3°C 25.0°C 0.0Kts E 0.0mm 1012.5hpa 0.0
20:13 21.8°C 91% 20.3°C 25.0°C 1.7Kts E 0.0mm 1012.4hpa 0.0
20:11 21.8°C 91% 20.2°C 25.0°C 2.6Kts ENE 0.0mm 1012.3hpa 0.0
20:09 21.8°C 91% 20.2°C 25.0°C 0.9Kts ENE 0.0mm 1012.3hpa 0.0
20:07 21.8°C 91% 20.2°C 25.0°C 0.0Kts ENE 0.0mm 1012.3hpa 0.0
20:05 21.8°C 91% 20.2°C 25.0°C 0.9Kts ENE 0.0mm 1012.2hpa 0.0
20:03 21.8°C 91% 20.2°C 25.0°C 2.6Kts ENE 0.0mm 1012.2hpa 0.0
20:01 21.8°C 91% 20.2°C 25.0°C 0.0Kts ENE 0.0mm 1012.2hpa 0.0
19:59 21.8°C 91% 20.2°C 25.3°C 0.9Kts E 0.0mm 1012.2hpa 0.0
19:57 21.8°C 91% 20.2°C 25.3°C 1.7Kts ENE 0.0mm 1012.2hpa 0.0
19:55 21.8°C 91% 20.2°C 25.3°C 1.7Kts ENE 0.0mm 1012.2hpa 0.0
19:53 21.8°C 90% 20.1°C 25.2°C 1.7Kts ENE 0.0mm 1012.3hpa 0.0
19:51 21.8°C 90% 20.1°C 25.2°C 0.0Kts ENE 0.0mm 1012.2hpa 0.0
19:49 21.8°C 90% 20.1°C 25.2°C 0.0Kts ENE 0.0mm 1012.2hpa 0.0
19:47 21.8°C 90% 20.1°C 25.2°C 0.0Kts ENE 0.0mm 1012.1hpa 0.0
19:45 21.8°C 90% 20.1°C 25.2°C 0.0Kts ENE 0.0mm 1012.1hpa 0.0
19:43 21.8°C 90% 20.1°C 25.2°C 1.7Kts ENE 0.0mm 1012.1hpa 0.0
19:41 21.8°C 90% 20.1°C 25.2°C 0.9Kts ENE 0.0mm 1012.1hpa 0.0
19:39 21.9°C 90% 20.2°C 25.4°C 0.0Kts E 0.0mm 1012.1hpa 0.0
19:37 21.9°C 90% 20.2°C 25.7°C 0.0Kts E 0.0mm 1012.1hpa 0.0
19:35 21.9°C 90% 20.2°C 25.7°C 0.9Kts E 0.0mm 1012.1hpa 0.0
19:33 21.9°C 90% 20.2°C 25.7°C 0.0Kts E 0.0mm 1012.1hpa 0.0
19:31 22.0°C 90% 20.3°C 25.8°C 0.0Kts E 0.0mm 1012.0hpa 0.0
19:29 22.0°C 90% 20.3°C 25.8°C 0.9Kts E 0.0mm 1012.0hpa 0.0
19:27 22.0°C 90% 20.3°C 25.5°C 0.0Kts E 0.0mm 1011.9hpa 0.0
19:25 22.1°C 89% 20.2°C 25.6°C 0.0Kts E 0.0mm 1011.9hpa 0.0
19:23 22.1°C 89% 20.2°C 25.6°C 0.9Kts E 0.0mm 1011.9hpa 0.0
19:21 22.1°C 89% 20.2°C 25.6°C 0.0Kts E 0.0mm 1011.9hpa 0.0
19:19 22.1°C 90% 20.4°C 25.7°C 0.0Kts E 0.0mm 1011.9hpa 0.0
19:17 22.2°C 89% 20.3°C 25.7°C 0.0Kts ENE 0.0mm 1011.9hpa 0.0
19:15 22.2°C 89% 20.3°C 25.7°C 0.0Kts ENE 0.0mm 1011.8hpa 0.0
19:13 22.2°C 89% 20.3°C 25.7°C 0.0Kts ENE 0.0mm 1011.9hpa 0.0
19:11 22.2°C 89% 20.3°C 25.7°C 0.9Kts ENE 0.0mm 1011.9hpa 0.0
19:09 22.2°C 89% 20.3°C 25.7°C 0.9Kts ENE 0.0mm 1012.0hpa 0.0
19:07 22.2°C 89% 20.3°C 25.7°C 1.7Kts ENE 0.0mm 1012.0hpa 0.0
19:05 22.3°C 89% 20.4°C 25.9°C 0.0Kts E 0.0mm 1012.0hpa 0.0
19:03 22.2°C 89% 20.3°C 25.7°C 0.0Kts E 0.0mm 1011.9hpa 0.0
19:01 22.3°C 89% 20.4°C 26.2°C 0.9Kts ENE 0.0mm 1011.9hpa 0.0
18:59 22.3°C 89% 20.4°C 25.9°C 0.9Kts ENE 0.0mm 1011.9hpa 0.0
18:57 22.3°C 89% 20.4°C 25.9°C 0.0Kts ENE 0.0mm 1011.8hpa 0.0
18:55 22.3°C 89% 20.4°C 25.9°C 0.0Kts ENE 0.0mm 1011.8hpa 0.0
18:53 22.3°C 89% 20.4°C 25.9°C 0.0Kts ENE 0.0mm 1011.7hpa 0.0
18:51 22.3°C 89% 20.4°C 25.9°C 0.0Kts ENE 0.0mm 1011.7hpa 0.0
18:49 22.3°C 89% 20.4°C 25.9°C 1.7Kts E 0.0mm 1011.6hpa 0.0
18:47 22.3°C 89% 20.4°C 25.9°C 0.9Kts ENE 0.0mm 1011.6hpa 0.0
18:45 22.3°C 88% 20.2°C 25.8°C 0.0Kts ENE 0.0mm 1011.5hpa 0.0
18:43 22.3°C 88% 20.2°C 25.5°C 0.0Kts ENE 0.0mm 1011.4hpa 0.0
18:41 22.3°C 88% 20.2°C 25.5°C 0.0Kts ENE 0.0mm 1011.5hpa 0.0
18:39 22.3°C 88% 20.2°C 25.8°C 1.7Kts E 0.0mm 1011.4hpa 0.0
18:37 22.3°C 88% 20.2°C 25.5°C 0.9Kts ENE 0.0mm 1011.4hpa 0.0
18:35 22.3°C 88% 20.2°C 25.5°C 0.0Kts ENE 0.0mm 1011.4hpa 0.0
18:33 22.3°C 88% 20.2°C 25.5°C 1.7Kts ENE 0.0mm 1011.3hpa 0.0
18:31 22.3°C 88% 20.2°C 25.5°C 0.9Kts ENE 0.0mm 1011.4hpa 0.0
18:29 22.3°C 88% 20.2°C 25.5°C 0.0Kts ENE 0.0mm 1011.4hpa 0.0
18:27 22.4°C 87% 20.1°C 25.5°C 2.6Kts ENE 0.0mm 1011.4hpa 0.0
18:25 22.4°C 87% 20.1°C 25.5°C 2.6Kts ENE 0.0mm 1011.3hpa 0.0
18:23 22.4°C 87% 20.2°C 25.5°C 3.5Kts ENE 0.0mm 1011.4hpa 0.0
18:21 22.4°C 87% 20.2°C 25.5°C 0.9Kts E 0.0mm 1011.3hpa 0.0
18:19 22.4°C 87% 20.2°C 25.5°C 1.7Kts ENE 0.0mm 1011.3hpa 0.0
18:17 22.5°C 87% 20.2°C 25.7°C 0.9Kts ENE 0.0mm 1011.3hpa 0.0
18:15 22.6°C 87% 20.3°C 25.8°C 0.9Kts ENE 0.0mm 1011.3hpa 0.0
18:13 22.6°C 87% 20.3°C 25.8°C 0.9Kts ENE 0.0mm 1011.3hpa 0.0
18:11 22.6°C 86% 20.1°C 25.8°C 0.9Kts ENE 0.0mm 1011.3hpa 0.0
18:09 22.7°C 86% 20.2°C 25.9°C 1.7Kts ENE 0.0mm 1011.3hpa 0.0
18:07 22.7°C 86% 20.3°C 25.9°C 2.6Kts ENE 0.0mm 1011.2hpa 0.0
18:05 22.8°C 86% 20.3°C 26.0°C 0.9Kts ENE 0.0mm 1011.3hpa 0.0
18:03 22.8°C 86% 20.3°C 26.0°C 0.9Kts ENE 0.0mm 1011.2hpa 0.0
18:01 22.8°C 86% 20.4°C 26.3°C 3.5Kts E 0.0mm 1011.2hpa 0.0
17:59 22.9°C 86% 20.4°C 26.5°C 1.7Kts ENE 0.0mm 1011.2hpa 0.0
17:57 22.9°C 86% 20.5°C 26.5°C 0.9Kts E 0.0mm 1011.3hpa 0.0
17:55 23.0°C 85% 20.3°C 26.5°C 0.0Kts E 0.0mm 1011.3hpa 0.0
17:53 23.0°C 85% 20.3°C 26.5°C 0.9Kts ENE 0.0mm 1011.2hpa 0.0
17:51 23.1°C 85% 20.4°C 26.7°C 1.7Kts ENE 0.0mm 1011.3hpa 0.0
17:49 23.1°C 85% 20.4°C 26.4°C 0.9Kts ENE 0.0mm 1011.3hpa 0.0
17:47 23.2°C 85% 20.5°C 26.8°C 2.6Kts E 0.0mm 1011.2hpa 0.0
17:45 23.2°C 85% 20.5°C 26.8°C 1.7Kts ENE 0.0mm 1011.3hpa 0.0
17:43 23.2°C 84% 20.4°C 26.5°C 0.9Kts ENE 0.0mm 1011.2hpa 0.0
17:41 23.2°C 84% 20.4°C 26.5°C 0.9Kts ENE 0.0mm 1011.2hpa 0.0
17:39 23.3°C 84% 20.4°C 26.6°C 1.7Kts ENE 0.0mm 1011.3hpa 0.0
17:37 23.3°C 84% 20.4°C 26.6°C 1.7Kts ENE 0.0mm 1011.2hpa 0.0
17:35 23.3°C 84% 20.4°C 26.6°C 2.6Kts E 0.0mm 1011.2hpa 0.0
17:33 23.3°C 84% 20.4°C 26.6°C 0.0Kts ENE 0.0mm 1011.2hpa 0.0
17:31 23.3°C 84% 20.4°C 26.6°C 1.7Kts ENE 0.0mm 1011.2hpa 0.0
17:29 23.3°C 84% 20.4°C 26.3°C 1.7Kts E 0.0mm 1011.2hpa 0.0
17:27 23.3°C 84% 20.5°C 26.3°C 2.6Kts ENE 0.0mm 1011.2hpa 0.0
17:25 23.3°C 84% 20.5°C 26.3°C 3.5Kts ENE 0.0mm 1011.1hpa 0.0
17:23 23.3°C 84% 20.5°C 26.3°C 2.6Kts ENE 0.0mm 1011.0hpa 0.0
17:21 23.3°C 83% 20.3°C 26.2°C 2.6Kts E 0.0mm 1011.0hpa 0.0
17:19 23.4°C 83% 20.3°C 26.3°C 3.5Kts ENE 0.0mm 1011.0hpa 0.0
17:17 23.4°C 83% 20.4°C 26.3°C 0.9Kts ENE 0.0mm 1010.9hpa 0.0
17:15 23.4°C 83% 20.4°C 26.3°C 1.7Kts E 0.0mm 1010.9hpa 0.0
17:13 23.5°C 83% 20.4°C 26.5°C 1.7Kts ENE 0.0mm 1010.9hpa 0.0
17:11 23.6°C 83% 20.5°C 26.3°C 0.9Kts ENE 0.0mm 1010.9hpa 0.0
17:09 23.6°C 83% 20.6°C 26.6°C 2.6Kts ENE 0.0mm 1010.9hpa 0.0
17:07 23.7°C 83% 20.6°C 26.8°C 1.7Kts ENE 0.0mm 1010.8hpa 0.0
17:05 23.7°C 82% 20.4°C 26.7°C 2.6Kts ENE 0.0mm 1010.8hpa 0.0
17:03 23.7°C 82% 20.5°C 26.7°C 2.6Kts E 0.0mm 1010.8hpa 0.0
17:01 23.8°C 82% 20.5°C 26.8°C 3.5Kts E 0.0mm 1010.8hpa 0.0
16:59 23.8°C 82% 20.6°C 26.5°C 0.9Kts ENE 0.0mm 1010.7hpa 0.0
16:57 23.8°C 82% 20.6°C 26.5°C 2.6Kts NE 0.0mm 1010.7hpa 0.0
16:55 23.8°C 82% 20.6°C 26.5°C 0.9Kts NE 0.0mm 1010.7hpa 0.0
16:53 23.9°C 81% 20.4°C 26.5°C 3.5Kts E 0.0mm 1010.7hpa 0.0
16:51 23.9°C 81% 20.5°C 26.3°C 3.5Kts ENE 0.0mm 1010.7hpa 0.0
16:49 23.9°C 81% 20.5°C 26.3°C 2.6Kts ENE 0.0mm 1010.7hpa 0.0
16:47 24.0°C 81% 20.5°C 26.4°C 1.7Kts ENE 0.0mm 1010.7hpa 0.0
16:45 24.1°C 81% 20.6°C 26.8°C 4.3Kts E 0.0mm 1010.7hpa 0.0
16:43 24.1°C 81% 20.6°C 26.6°C 3.5Kts ENE 0.0mm 1010.7hpa 0.0
16:41 24.2°C 81% 20.7°C 26.7°C 7.8Kts ENE 0.0mm 1010.7hpa 0.0
16:39 24.2°C 81% 20.7°C 27.0°C 3.5Kts ENE 0.0mm 1010.7hpa 0.0
16:37 24.2°C 81% 20.8°C 26.7°C 3.5Kts E 0.0mm 1010.7hpa 0.0
16:35 24.3°C 80% 20.6°C 26.8°C 6.1Kts E 0.0mm 1010.7hpa 0.0
16:33 24.3°C 80% 20.7°C 27.0°C 5.2Kts ENE 0.0mm 1010.7hpa 0.0
16:31 24.4°C 80% 20.7°C 27.2°C 3.5Kts ENE 0.0mm 1010.6hpa 0.0
16:29 24.4°C 79% 20.6°C 27.1°C 3.5Kts ENE 0.0mm 1010.6hpa 0.0
16:27 24.5°C 79% 20.6°C 27.6°C 4.3Kts ENE 0.0mm 1010.6hpa 0.0
16:25 24.6°C 80% 20.9°C 27.8°C 1.7Kts E 0.0mm 1010.5hpa 0.5
16:23 24.6°C 79% 20.7°C 27.4°C 1.7Kts E 0.0mm 1010.5hpa 0.5
16:21 24.6°C 79% 20.7°C 27.4°C 2.6Kts ENE 0.0mm 1010.6hpa 0.5
16:19 24.6°C 79% 20.7°C 27.7°C 7.8Kts E 0.0mm 1010.6hpa 0.5
16:17 24.7°C 79% 20.8°C 27.9°C 2.6Kts E 0.0mm 1010.5hpa 0.6
16:15 24.7°C 79% 20.8°C 27.5°C 6.1Kts E 0.0mm 1010.5hpa 0.6
16:13 24.8°C 79% 20.9°C 27.7°C 3.5Kts ENE 0.0mm 1010.5hpa 0.6
16:11 24.8°C 78% 20.7°C 27.6°C 1.7Kts NE 0.0mm 1010.5hpa 0.6
16:09 24.8°C 78% 20.7°C 27.3°C 1.7Kts E 0.0mm 1010.5hpa 0.7
16:07 24.8°C 78% 20.7°C 27.3°C 3.5Kts ENE 0.0mm 1010.4hpa 0.7
16:05 24.9°C 77% 20.6°C 27.3°C 3.5Kts ENE 0.0mm 1010.5hpa 0.7
16:03 24.9°C 77% 20.6°C 27.6°C 4.3Kts ENE 0.0mm 1010.5hpa 0.7
16:01 25.0°C 77% 20.7°C 27.8°C 7.0Kts ENE 0.0mm 1010.5hpa 0.8
15:59 25.1°C 77% 20.7°C 28.2°C 8.7Kts E 0.0mm 1010.5hpa 0.8
15:57 25.1°C 77% 20.7°C 28.2°C 2.6Kts ENE 0.0mm 1010.4hpa 0.8
15:55 25.1°C 76% 20.6°C 28.1°C 3.5Kts E 0.0mm 1010.5hpa 0.8
15:53 25.2°C 76% 20.6°C 28.0°C 0.9Kts E 0.0mm 1010.4hpa 0.8
15:51 25.2°C 76% 20.6°C 28.0°C 1.7Kts ENE 0.0mm 1010.4hpa 0.9
15:49 25.2°C 76% 20.6°C 28.0°C 5.2Kts ENE 0.0mm 1010.4hpa 0.9
15:47 25.2°C 76% 20.7°C 28.3°C 4.3Kts E 0.0mm 1010.4hpa 0.9
15:45 25.3°C 76% 20.7°C 28.1°C 4.3Kts ENE 0.0mm 1010.4hpa 1.0
15:43 25.3°C 76% 20.8°C 28.4°C 4.3Kts ENE 0.0mm 1010.4hpa 1.0
15:41 25.3°C 76% 20.8°C 28.1°C 1.7Kts E 0.0mm 1010.5hpa 1.0
15:39 25.3°C 76% 20.7°C 28.1°C 3.5Kts E 0.0mm 1010.4hpa 1.1
15:37 25.3°C 76% 20.7°C 28.1°C 2.6Kts E 0.0mm 1010.5hpa 1.1
15:35 25.2°C 75% 20.5°C 27.9°C 1.7Kts ENE 0.0mm 1010.4hpa 1.2
15:33 25.3°C 74% 20.4°C 27.9°C 1.7Kts ENE 0.0mm 1010.5hpa 1.2
15:31 25.4°C 74% 20.5°C 28.0°C 3.5Kts ENE 0.0mm 1010.5hpa 1.2
15:29 25.6°C 74% 20.6°C 28.3°C 3.5Kts ENE 0.0mm 1010.5hpa 1.2
15:27 25.7°C 74% 20.7°C 28.5°C 3.5Kts ENE 0.0mm 1010.5hpa 1.2
15:25 25.8°C 74% 20.8°C 29.0°C 3.5Kts ESE 0.0mm 1010.5hpa 1.2
15:23 25.9°C 73% 20.7°C 29.0°C 0.0Kts SE 0.0mm 1010.5hpa 1.2
15:21 26.0°C 73% 20.8°C 29.5°C 8.7Kts E 0.0mm 1010.5hpa 1.3
15:19 26.0°C 74% 21.0°C 29.3°C 0.9Kts ENE 0.0mm 1010.5hpa 1.3
15:17 26.1°C 74% 21.1°C 29.4°C 0.9Kts ENE 0.0mm 1010.5hpa 1.3
15:15 26.0°C 75% 21.2°C 29.4°C 0.9Kts NNE 0.0mm 1010.5hpa 1.3
15:13 25.9°C 73% 20.7°C 29.0°C 1.7Kts ENE 0.0mm 1010.6hpa 1.4
15:11 26.0°C 73% 20.8°C 28.8°C 2.6Kts E 0.0mm 1010.6hpa 1.4
15:09 26.1°C 71% 20.4°C 28.7°C 4.3Kts ENE 0.0mm 1010.6hpa 1.4
15:07 26.2°C 73% 21.0°C 29.4°C 6.1Kts ENE 0.0mm 1010.6hpa 1.5
15:05 26.2°C 73% 21.0°C 29.4°C 3.5Kts E 0.0mm 1010.6hpa 1.6
15:03 26.3°C 72% 20.8°C 29.5°C 5.2Kts N 0.0mm 1010.7hpa 1.6
15:01 26.3°C 73% 21.1°C 29.9°C 2.6Kts ENE 0.0mm 1010.6hpa 1.6
14:59 26.3°C 74% 21.3°C 30.0°C 1.7Kts NNE 0.0mm 1010.6hpa 1.6
14:57 26.3°C 74% 21.3°C 30.0°C 2.6Kts ENE 0.0mm 1010.5hpa 1.7
14:55 26.4°C 73% 21.2°C 30.1°C 2.6Kts ENE 0.0mm 1010.5hpa 1.7
14:53 26.4°C 74% 21.4°C 29.8°C 0.0Kts E 0.0mm 1010.5hpa 1.8
14:51 26.4°C 73% 21.2°C 29.7°C 0.9Kts ENE 0.0mm 1010.5hpa 1.8
14:49 26.4°C 73% 21.2°C 29.7°C 2.6Kts ENE 0.0mm 1010.4hpa 1.9
14:47 26.4°C 73% 21.2°C 29.7°C 2.6Kts NE 0.0mm 1010.5hpa 1.9
14:45 26.5°C 74% 21.5°C 29.7°C 1.7Kts E 0.0mm 1010.5hpa 2.0
14:43 26.5°C 73% 21.3°C 29.6°C 1.7Kts NE 0.0mm 1010.5hpa 2.0
14:41 26.6°C 72% 21.1°C 29.9°C 5.2Kts NE 0.0mm 1010.5hpa 2.0
14:39 26.6°C 73% 21.3°C 30.0°C 4.3Kts NNE 0.0mm 1010.5hpa 2.1
14:37 26.4°C 74% 21.4°C 29.8°C 0.9Kts ENE 0.0mm 1010.5hpa 2.1
14:35 26.4°C 73% 21.2°C 29.7°C 1.7Kts NE 0.0mm 1010.6hpa 2.2
14:33 26.4°C 74% 21.4°C 29.8°C 4.3Kts NE 0.0mm 1010.6hpa 2.2
14:31 26.4°C 72% 20.9°C 29.3°C 2.6Kts NE 0.0mm 1010.6hpa 3.4
14:29 26.4°C 74% 21.4°C 29.8°C 0.9Kts NNE 0.0mm 1010.6hpa 3.7
14:27 26.3°C 73% 21.1°C 29.6°C 2.6Kts E 0.0mm 1010.6hpa 3.4
14:25 26.4°C 72% 20.9°C 29.6°C 3.5Kts E 0.0mm 1010.6hpa 3.5
14:23 26.4°C 72% 20.9°C 29.6°C 2.6Kts NNW 0.0mm 1010.5hpa 3.5
14:21 26.3°C 74% 21.3°C 29.7°C 0.9Kts NE 0.0mm 1010.6hpa 3.5
14:19 26.2°C 74% 21.2°C 29.5°C 0.0Kts E 0.0mm 1010.6hpa 3.6
14:17 26.3°C 73% 21.1°C 29.6°C 0.9Kts ENE 0.0mm 1010.7hpa 3.5
14:15 26.5°C 71% 20.8°C 29.3°C 3.5Kts ENE 0.0mm 1010.7hpa 2.3
14:13 26.7°C 72% 21.3°C 29.7°C 4.3Kts E 0.0mm 1010.7hpa 2.5
14:11 26.7°C 74% 21.7°C 30.0°C 1.7Kts E 0.0mm 1010.7hpa 3.8
14:09 26.4°C 74% 21.4°C 29.5°C 0.0Kts E 0.0mm 1010.7hpa 4.0
14:07 26.3°C 73% 21.1°C 29.0°C 0.9Kts E 0.0mm 1010.8hpa 3.8
14:05 26.2°C 72% 20.8°C 29.0°C 7.8Kts E 0.0mm 1010.8hpa 4.1
14:03 26.4°C 71% 20.8°C 29.2°C 4.3Kts ENE 0.0mm 1010.8hpa 4.0
14:01 26.8°C 70% 20.8°C 29.7°C 3.5Kts NE 0.0mm 1010.8hpa 2.5
13:59 27.1°C 70% 21.2°C 30.4°C 4.3Kts ENE 0.0mm 1010.8hpa 2.5
13:57 27.3°C 69% 21.1°C 30.6°C 2.6Kts NNE 0.0mm 1010.7hpa 3.9
13:55 27.4°C 69% 21.2°C 30.8°C 5.2Kts E 0.0mm 1010.8hpa 4.2
13:53 27.6°C 68% 21.2°C 31.3°C 3.5Kts NE 0.0mm 1010.8hpa 4.3
13:51 27.6°C 70% 21.6°C 31.5°C 3.5Kts NNE 0.0mm 1010.7hpa 4.4
13:49 27.6°C 69% 21.4°C 31.4°C 1.7Kts ENE 0.0mm 1010.7hpa 4.6
13:47 27.4°C 68% 21.0°C 30.6°C 2.6Kts E 0.0mm 1010.7hpa 4.3
13:45 27.3°C 70% 21.3°C 30.7°C 3.5Kts E 0.0mm 1010.7hpa 4.6
13:43 27.1°C 68% 20.7°C 30.5°C 2.6Kts ENE 0.0mm 1010.7hpa 4.6
13:41 27.2°C 67% 20.6°C 30.5°C 1.7Kts ENE 0.0mm 1010.7hpa 4.9
13:39 27.1°C 67% 20.4°C 30.4°C 3.5Kts NNE 0.0mm 1010.8hpa 4.8
13:37 27.0°C 68% 20.6°C 30.4°C 3.5Kts ENE 0.0mm 1010.8hpa 4.9
13:35 26.9°C 71% 21.2°C 30.6°C 0.9Kts NE 0.0mm 1010.8hpa 4.9
13:33 26.8°C 73% 21.5°C 30.3°C 1.7Kts ENE 0.0mm 1010.8hpa 5.3
13:31 26.5°C 70% 20.6°C 29.5°C 0.0Kts ENE 0.0mm 1010.9hpa 5.7
13:29 26.6°C 71% 20.9°C 30.1°C 3.5Kts E 0.0mm 1010.9hpa 5.9
13:27 26.8°C 69% 20.6°C 30.2°C 0.9Kts E 0.0mm 1010.9hpa 5.1
13:25 27.1°C 69% 20.9°C 30.6°C 3.5Kts ENE 0.0mm 1010.9hpa 2.8
13:23 27.5°C 66% 20.6°C 30.9°C 3.5Kts ENE 0.0mm 1011.0hpa 3.1
13:21 27.7°C 68% 21.3°C 31.4°C 2.6Kts ENE 0.0mm 1011.0hpa 3.7
13:19 27.6°C 68% 21.2°C 31.3°C 0.0Kts NE 0.0mm 1011.0hpa 6.5
13:17 27.6°C 65% 20.4°C 30.9°C 3.5Kts NNW 0.0mm 1011.2hpa 6.6
13:15 27.6°C 68% 21.1°C 31.3°C 1.7Kts NNE 0.0mm 1011.2hpa 6.6
13:13 27.3°C 67% 20.7°C 30.7°C 0.9Kts N 0.0mm 1011.2hpa 6.7
13:11 27.1°C 70% 21.2°C 30.8°C 2.6Kts NNW 0.0mm 1011.2hpa 6.7
13:09 26.6°C 72% 21.1°C 30.2°C 0.9Kts NNE 0.0mm 1011.3hpa 6.8
13:07 26.3°C 71% 20.6°C 29.4°C 0.0Kts ENE 0.0mm 1011.3hpa 6.8
13:05 26.4°C 70% 20.5°C 29.1°C 1.7Kts ENE 0.0mm 1011.3hpa 3.2
13:03 26.6°C 69% 20.5°C 29.3°C 1.7Kts ENE 0.0mm 1011.4hpa 5.7
13:01 26.8°C 69% 20.7°C 29.9°C 2.6Kts NE 0.0mm 1011.4hpa 2.7
12:59 26.8°C 69% 20.6°C 29.9°C 0.0Kts N 0.0mm 1011.4hpa 2.7
12:57 26.8°C 69% 20.6°C 30.2°C 7.0Kts NNW 0.0mm 1011.4hpa 6.4
12:55 26.6°C 72% 21.1°C 30.5°C 5.2Kts N 0.0mm 1011.4hpa 6.7
12:53 26.3°C 74% 21.3°C 30.6°C 1.7Kts NW 0.0mm 1011.4hpa 6.7
12:51 26.1°C 72% 20.6°C 29.8°C 0.9Kts E 0.0mm 1011.5hpa 3.3
12:49 26.2°C 72% 20.8°C 29.7°C 0.0Kts E 0.0mm 1011.5hpa 3.0
12:47 26.3°C 72% 20.9°C 29.8°C 0.0Kts E 0.0mm 1011.5hpa 2.6
12:45 26.4°C 72% 21.0°C 29.9°C 0.9Kts ENE 0.0mm 1011.5hpa 2.6
12:43 26.6°C 71% 20.9°C 29.8°C 0.0Kts E 0.0mm 1011.5hpa 2.6
12:41 26.9°C 69% 20.7°C 30.0°C 1.7Kts ENE 0.0mm 1011.5hpa 2.9
12:39 27.3°C 69% 21.1°C 30.6°C 3.5Kts ESE 0.0mm 1011.5hpa 3.1
12:37 27.4°C 67% 20.8°C 30.5°C 1.7Kts ENE 0.0mm 1011.6hpa 5.1
12:35 27.6°C 67% 20.9°C 30.8°C 0.0Kts NNW 0.0mm 1011.6hpa 7.8
12:33 27.5°C 69% 21.2°C 30.9°C 3.5Kts NNW 0.0mm 1011.6hpa 7.9
12:31 27.3°C 71% 21.6°C 30.5°C 7.0Kts NW 0.0mm 1011.6hpa 7.9
12:29 27.1°C 68% 20.7°C 29.9°C 3.5Kts NE 0.0mm 1011.6hpa 7.8
12:27 27.2°C 71% 21.5°C 30.7°C 7.0Kts NNW 0.0mm 1011.6hpa 7.8
12:25 26.8°C 71% 21.1°C 29.8°C 1.7Kts ENE 0.0mm 1011.6hpa 7.8
12:23 26.6°C 69% 20.5°C 29.6°C 4.3Kts ENE 0.0mm 1011.6hpa 7.8
12:21 26.8°C 69% 20.6°C 29.9°C 2.6Kts E 0.0mm 1011.7hpa 7.9
12:19 26.8°C 70% 20.9°C 30.0°C 0.9Kts NE 0.0mm 1011.7hpa 8.0
12:17 27.1°C 68% 20.6°C 30.2°C 1.7Kts ENE 0.0mm 1011.7hpa 8.2
12:15 27.2°C 71% 21.5°C 30.7°C 3.5Kts ESE 0.0mm 1011.8hpa 8.0
12:13 26.9°C 71% 21.2°C 29.9°C 1.7Kts ESE 0.0mm 1011.7hpa 8.1
12:11 26.8°C 72% 21.3°C 29.9°C 3.5Kts NE 0.0mm 1011.7hpa 8.3
12:09 26.5°C 74% 21.5°C 29.7°C 0.9Kts NNE 0.0mm 1011.7hpa 8.0
12:07 26.2°C 72% 20.8°C 29.0°C 2.6Kts NE 0.0mm 1011.7hpa 7.8
12:05 26.2°C 72% 20.7°C 29.3°C 3.5Kts ENE 0.0mm 1011.8hpa 7.8
12:03 26.2°C 74% 21.2°C 29.5°C 4.3Kts ENE 0.0mm 1011.8hpa 7.8
12:01 26.2°C 73% 21.0°C 29.1°C 4.3Kts E 0.0mm 1011.8hpa 3.9
11:59 26.3°C 72% 20.8°C 29.1°C 1.7Kts E 0.0mm 1011.9hpa 7.9
11:57 26.2°C 72% 20.8°C 29.0°C 2.6Kts E 0.0mm 1011.9hpa 7.8
11:55 26.2°C 75% 21.4°C 29.3°C 3.5Kts ENE 0.0mm 1011.9hpa 7.9
11:53 25.9°C 76% 21.3°C 29.0°C 0.9Kts E 0.0mm 1011.9hpa 7.9
11:51 25.7°C 76% 21.1°C 29.0°C 6.1Kts E 0.0mm 1012.0hpa 7.9
11:49 25.7°C 73% 20.5°C 29.0°C 3.5Kts ENE 0.0mm 1012.1hpa 8.1
11:47 25.9°C 73% 20.7°C 29.0°C 2.6Kts ENE 0.0mm 1012.1hpa 3.4
11:45 26.2°C 72% 20.7°C 29.3°C 4.3Kts ENE 0.0mm 1012.1hpa 3.4
11:43 26.4°C 70% 20.5°C 29.4°C 0.9Kts ESE 0.0mm 1012.1hpa 3.5
11:41 26.6°C 71% 20.9°C 29.8°C 3.5Kts S 0.0mm 1012.2hpa 7.5
11:39 26.5°C 72% 21.0°C 29.4°C 0.0Kts ENE 0.0mm 1012.2hpa 7.8
11:37 26.6°C 70% 20.6°C 29.4°C 3.5Kts E 0.0mm 1012.2hpa 7.9
11:35 26.6°C 69% 20.5°C 29.6°C 6.1Kts ENE 0.0mm 1012.2hpa 7.9
11:33 26.4°C 70% 20.5°C 29.4°C 0.0Kts ENE 0.0mm 1012.2hpa 7.8
11:31 26.3°C 69% 20.2°C 28.8°C 2.6Kts N 0.0mm 1012.3hpa 7.6
11:29 26.6°C 71% 20.9°C 29.8°C 4.3Kts ENE 0.0mm 1012.3hpa 7.3
11:27 26.6°C 73% 21.4°C 30.0°C 2.6Kts ENE 0.0mm 1012.3hpa 7.4
11:25 26.5°C 74% 21.5°C 30.0°C 2.6Kts ESE 0.0mm 1012.3hpa 7.4
11:23 26.4°C 72% 20.9°C 29.6°C 0.0Kts E 0.0mm 1012.3hpa 7.4
11:21 26.3°C 74% 21.3°C 30.0°C 4.3Kts E 0.0mm 1012.4hpa 7.4
11:19 26.2°C 73% 21.0°C 29.8°C 1.7Kts NE 0.0mm 1012.5hpa 7.4
11:17 26.3°C 73% 21.1°C 29.9°C 0.9Kts NE 0.0mm 1012.6hpa 7.5
11:15 26.4°C 73% 21.2°C 30.1°C 5.2Kts N 0.0mm 1012.6hpa 7.5
11:13 26.4°C 73% 21.2°C 29.7°C 0.9Kts ENE 0.0mm 1012.7hpa 7.3
11:11 26.4°C 74% 21.4°C 29.8°C 1.7Kts NE 0.0mm 1012.6hpa 7.1
11:09 26.4°C 74% 21.4°C 29.8°C 2.6Kts ENE 0.0mm 1012.7hpa 7.2
11:07 26.3°C 74% 21.3°C 29.7°C 3.5Kts NE 0.0mm 1012.7hpa 7.1
11:05 26.2°C 74% 21.2°C 29.2°C 2.6Kts NNW 0.0mm 1012.7hpa 6.8
11:03 25.8°C 75% 21.0°C 28.7°C 3.5Kts WNW 0.0mm 1012.7hpa 6.9
11:01 25.7°C 75% 20.9°C 28.6°C 3.5Kts NNW 0.0mm 1012.7hpa 7.0
10:59 25.6°C 75% 20.8°C 28.8°C 0.0Kts NW 0.0mm 1012.7hpa 7.1
10:57 25.7°C 74% 20.7°C 28.8°C 1.7Kts NNW 0.0mm 1012.7hpa 7.0
10:55 25.8°C 73% 20.6°C 28.8°C 7.0Kts NNW 0.0mm 1012.8hpa 6.9
10:53 25.9°C 74% 21.0°C 29.4°C 3.5Kts NW 0.0mm 1012.8hpa 6.9
10:51 26.0°C 72% 20.6°C 29.4°C 0.0Kts ENE 0.0mm 1012.8hpa 6.9
10:49 26.3°C 73% 21.1°C 29.9°C 3.5Kts ENE 0.0mm 1012.8hpa 6.9
10:47 26.3°C 77% 22.0°C 30.4°C 4.3Kts E 0.0mm 1012.8hpa 6.9
10:45 26.2°C 74% 21.2°C 29.9°C 0.0Kts NNE 0.0mm 1012.9hpa 6.9
10:43 26.1°C 76% 21.5°C 29.9°C 3.5Kts ENE 0.0mm 1012.9hpa 6.6
10:41 25.7°C 76% 21.1°C 29.0°C 0.0Kts ENE 0.0mm 1012.9hpa 6.6
10:39 25.6°C 75% 20.8°C 28.4°C 0.0Kts ENE 0.0mm 1012.9hpa 6.7
10:37 25.6°C 76% 21.0°C 28.6°C 2.6Kts ENE 0.0mm 1012.9hpa 6.7
10:35 25.4°C 77% 21.1°C 28.4°C 1.7Kts ENE 0.0mm 1012.9hpa 6.6
10:33 25.3°C 75% 20.5°C 28.0°C 0.9Kts ENE 0.0mm 1012.9hpa 6.6
10:31 25.4°C 75% 20.6°C 28.1°C 0.0Kts E 0.0mm 1012.9hpa 6.6
10:29 25.3°C 78% 21.2°C 28.3°C 2.6Kts ESE 0.0mm 1012.9hpa 6.5
10:27 25.2°C 77% 20.9°C 28.4°C 2.6Kts ENE 0.0mm 1012.9hpa 6.5
10:25 25.3°C 76% 20.8°C 28.8°C 7.8Kts ENE 0.0mm 1013.0hpa 4.3
10:23 25.4°C 78% 21.3°C 29.1°C 2.6Kts ENE 0.0mm 1012.9hpa 6.8
10:21 25.4°C 77% 21.1°C 29.0°C 0.9Kts E 0.0mm 1013.0hpa 3.4
10:19 25.4°C 76% 20.8°C 28.9°C 2.6Kts ESE 0.0mm 1013.0hpa 3.8
10:17 25.4°C 78% 21.3°C 29.1°C 1.7Kts NNW 0.0mm 1013.0hpa 6.3
10:15 25.2°C 79% 21.3°C 28.6°C 0.9Kts ENE 0.0mm 1013.0hpa 6.3
10:13 24.9°C 77% 20.6°C 27.9°C 1.7Kts NNE 0.0mm 1013.0hpa 6.2
10:11 25.1°C 77% 20.7°C 28.2°C 1.7Kts NNW 0.0mm 1013.0hpa 6.1
10:09 25.2°C 77% 20.8°C 28.4°C 2.6Kts NNE 0.0mm 1013.1hpa 6.1
10:07 25.3°C 79% 21.4°C 29.1°C 3.5Kts ENE 0.0mm 1013.0hpa 4.2
10:05 25.2°C 79% 21.3°C 28.9°C 2.6Kts NE 0.0mm 1013.1hpa 6.0
10:03 25.1°C 80% 21.4°C 28.9°C 0.9Kts NNE 0.0mm 1013.1hpa 5.9
10:01 24.9°C 79% 21.0°C 28.5°C 1.7Kts NNW 0.0mm 1013.1hpa 4.5
09:59 24.7°C 81% 21.2°C 28.4°C 3.5Kts NNW 0.0mm 1013.2hpa 5.7
09:57 24.5°C 79% 20.6°C 27.9°C 0.0Kts NNE 0.0mm 1013.2hpa 3.6
09:55 24.7°C 78% 20.6°C 28.1°C 0.0Kts ENE 0.0mm 1013.2hpa 2.7
09:53 24.9°C 78% 20.8°C 28.4°C 1.7Kts ENE 0.0mm 1013.3hpa 2.8
09:51 25.2°C 78% 21.1°C 28.8°C 2.6Kts ENE 0.0mm 1013.2hpa 5.4
09:49 25.3°C 78% 21.2°C 29.0°C 1.7Kts NE 0.0mm 1013.2hpa 5.2
09:47 25.2°C 81% 21.7°C 29.1°C 4.3Kts NE 0.0mm 1013.2hpa 5.3
09:45 24.8°C 82% 21.5°C 28.6°C 0.0Kts ENE 0.0mm 1013.2hpa 5.4
09:43 24.4°C 83% 21.3°C 27.8°C 0.9Kts ENE 0.0mm 1013.2hpa 5.3
09:41 24.2°C 81% 20.7°C 27.3°C 4.3Kts ENE 0.0mm 1013.3hpa 4.6
09:39 24.4°C 81% 20.9°C 27.6°C 2.6Kts ENE 0.0mm 1013.2hpa 2.2
09:37 24.5°C 81% 21.0°C 27.8°C 2.6Kts NE 0.0mm 1013.3hpa 2.2
09:35 24.6°C 81% 21.1°C 27.6°C 0.9Kts E 0.0mm 1013.3hpa 2.4
09:33 24.7°C 82% 21.4°C 28.2°C 4.3Kts ENE 0.0mm 1013.2hpa 4.5
09:31 24.6°C 82% 21.3°C 28.0°C 7.0Kts ENE 0.0mm 1013.2hpa 4.6
09:29 24.2°C 82% 20.9°C 27.4°C 0.0Kts E 0.0mm 1013.2hpa 4.6
09:27 23.9°C 82% 20.7°C 27.3°C 0.0Kts NW 0.0mm 1013.2hpa 3.0
09:25 23.9°C 82% 20.7°C 27.3°C 1.7Kts NNW 0.0mm 1013.3hpa 4.5
09:23 24.0°C 83% 20.9°C 27.8°C 3.5Kts ENE 0.0mm 1013.2hpa 2.5
09:21 23.9°C 82% 20.7°C 27.6°C 3.5Kts ENE 0.0mm 1013.3hpa 2.3
09:19 23.8°C 83% 20.8°C 27.2°C 0.0Kts NE 0.0mm 1013.3hpa 4.0
09:17 23.8°C 81% 20.4°C 26.7°C 1.7Kts ENE 0.0mm 1013.3hpa 1.9
09:15 24.1°C 81% 20.6°C 27.2°C 0.0Kts ENE 0.0mm 1013.4hpa 2.0
09:13 24.2°C 81% 20.8°C 27.3°C 0.9Kts NE 0.0mm 1013.4hpa 2.1
09:11 24.4°C 82% 21.1°C 27.7°C 1.7Kts ENE 0.0mm 1013.4hpa 2.3
09:09 24.2°C 83% 21.1°C 27.5°C 1.7Kts ENE 0.0mm 1013.4hpa 2.6
09:07 23.9°C 83% 20.8°C 27.1°C 4.3Kts E 0.0mm 1013.3hpa 3.7
09:05 23.7°C 85% 21.0°C 27.0°C 2.6Kts N 0.0mm 1013.3hpa 3.8
09:03 23.6°C 84% 20.7°C 26.4°C 0.9Kts ENE 0.0mm 1013.3hpa 2.0
09:01 23.6°C 83% 20.6°C 26.3°C 1.7Kts ENE 0.0mm 1013.3hpa 1.6
08:59 23.8°C 82% 20.6°C 26.2°C 2.6Kts ENE 0.0mm 1013.2hpa 1.6
08:57 24.0°C 82% 20.7°C 26.8°C 6.1Kts E 0.0mm 1013.3hpa 1.7
08:55 23.9°C 83% 20.9°C 26.7°C 1.7Kts ENE 0.0mm 1013.2hpa 3.3
08:53 23.9°C 84% 21.1°C 26.8°C 1.7Kts ESE 0.0mm 1013.2hpa 2.0
08:51 23.6°C 83% 20.6°C 26.6°C 6.1Kts ENE 0.0mm 1013.2hpa 3.2
08:49 23.6°C 82% 20.4°C 26.5°C 4.3Kts ENE 0.0mm 1013.2hpa 3.1
08:47 23.8°C 82% 20.5°C 26.8°C 0.9Kts E 0.0mm 1013.2hpa 1.7
08:45 24.0°C 81% 20.5°C 27.0°C 1.7Kts ESE 0.0mm 1013.1hpa 1.9
08:43 24.2°C 82% 21.0°C 27.4°C 4.3Kts E 0.0mm 1013.1hpa 1.8
08:41 24.3°C 83% 21.2°C 27.7°C 0.9Kts E 0.0mm 1013.0hpa 1.9
08:39 24.1°C 83% 21.0°C 27.4°C 5.2Kts E 0.0mm 1012.9hpa 2.7
08:37 23.9°C 83% 20.9°C 26.7°C 0.0Kts E 0.0mm 1013.0hpa 2.7
08:35 23.9°C 82% 20.7°C 26.4°C 2.6Kts N 0.0mm 1013.0hpa 2.0
08:33 24.1°C 83% 21.0°C 26.8°C 7.8Kts E 0.0mm 1013.0hpa 2.1
08:31 23.9°C 84% 21.1°C 26.6°C 2.6Kts NE 0.0mm 1012.9hpa 2.4
08:29 23.8°C 84% 20.9°C 26.4°C 3.5Kts E 0.0mm 1012.9hpa 2.3
08:27 23.8°C 83% 20.7°C 26.3°C 6.1Kts ENE 0.0mm 1013.0hpa 2.2
08:25 23.8°C 83% 20.7°C 26.6°C 6.1Kts ENE 0.0mm 1013.0hpa 2.2
08:23 23.9°C 83% 20.8°C 26.7°C 1.7Kts E 0.0mm 1012.9hpa 2.1
08:21 23.8°C 83% 20.7°C 26.6°C 1.7Kts ENE 0.0mm 1012.9hpa 2.1
08:19 23.7°C 83% 20.7°C 26.4°C 5.2Kts E 0.0mm 1013.0hpa 2.0
08:17 23.8°C 84% 20.9°C 26.7°C 1.7Kts NE 0.0mm 1012.9hpa 1.9
08:15 23.7°C 83% 20.7°C 26.4°C 2.6Kts ENE 0.0mm 1013.0hpa 1.9
08:13 23.8°C 83% 20.7°C 26.6°C 4.3Kts ENE 0.0mm 1012.9hpa 1.8
08:11 23.8°C 84% 21.0°C 27.0°C 3.5Kts E 0.0mm 1012.9hpa 1.8
08:09 23.8°C 85% 21.1°C 27.1°C 5.2Kts E 0.0mm 1013.0hpa 1.7
08:07 23.7°C 84% 20.8°C 26.9°C 5.2Kts E 0.0mm 1012.9hpa 1.6
08:05 23.6°C 84% 20.7°C 26.7°C 5.2Kts ENE 0.0mm 1012.9hpa 1.6
08:03 23.7°C 85% 21.0°C 27.0°C 2.6Kts E 0.0mm 1012.9hpa 1.5
08:01 23.6°C 85% 20.9°C 26.8°C 3.5Kts E 0.0mm 1012.9hpa 1.5
07:59 23.4°C 85% 20.8°C 26.2°C 4.3Kts ENE 0.0mm 1012.9hpa 1.4
07:57 23.4°C 85% 20.7°C 26.2°C 4.3Kts E 0.0mm 1012.9hpa 1.4
07:55 23.3°C 85% 20.7°C 26.0°C 1.7Kts ENE 0.0mm 1012.9hpa 1.3
07:53 23.3°C 86% 20.8°C 26.1°C 4.3Kts ENE 0.0mm 1012.9hpa 1.3
07:51 23.2°C 84% 20.3°C 25.8°C 1.7Kts ENE 0.0mm 1012.9hpa 1.2
07:49 23.4°C 85% 20.7°C 26.5°C 4.3Kts ENE 0.0mm 1012.9hpa 1.2
07:47 23.4°C 85% 20.8°C 26.8°C 6.1Kts ENE 0.0mm 1013.0hpa 1.2
07:45 23.4°C 85% 20.8°C 26.8°C 1.7Kts NE 0.0mm 1013.0hpa 1.1
07:43 23.4°C 85% 20.7°C 26.8°C 1.7Kts E 0.0mm 1013.1hpa 1.1
07:41 23.3°C 85% 20.7°C 26.4°C 0.0Kts ENE 0.0mm 1013.1hpa 1.0
07:39 23.3°C 86% 20.8°C 26.5°C 3.5Kts ESE 0.0mm 1013.1hpa 1.0
07:37 23.1°C 85% 20.4°C 26.1°C 1.7Kts ENE 0.0mm 1013.1hpa 0.9
07:35 23.1°C 86% 20.6°C 26.2°C 2.6Kts E 0.0mm 1013.0hpa 0.9
07:33 23.0°C 86% 20.5°C 25.7°C 1.7Kts E 0.0mm 1013.0hpa 0.9
07:31 22.9°C 87% 20.7°C 25.6°C 3.5Kts E 0.0mm 1012.9hpa 0.8
07:29 22.8°C 86% 20.3°C 25.4°C 0.9Kts E 0.0mm 1012.9hpa 0.8
07:27 22.8°C 86% 20.3°C 25.7°C 1.7Kts E 0.0mm 1012.8hpa 0.8
07:25 22.8°C 86% 20.3°C 25.7°C 3.5Kts E 0.0mm 1012.8hpa 0.7
07:23 22.7°C 86% 20.3°C 25.6°C 3.5Kts E 0.0mm 1012.8hpa 0.7
07:21 22.7°C 87% 20.4°C 26.0°C 3.5Kts ENE 0.0mm 1012.7hpa 0.7
07:19 22.7°C 87% 20.4°C 26.0°C 0.9Kts ENE 0.0mm 1012.6hpa 0.6
07:17 22.6°C 87% 20.3°C 25.8°C 0.9Kts E 0.0mm 1012.6hpa 0.6
07:15 22.6°C 87% 20.3°C 25.5°C 2.6Kts E 0.0mm 1012.6hpa 0.6
07:13 22.5°C 88% 20.4°C 25.5°C 2.6Kts ENE 0.0mm 1012.6hpa 0.5
07:11 22.3°C 88% 20.2°C 25.2°C 0.9Kts E 0.0mm 1012.6hpa 0.5
07:09 22.2°C 88% 20.1°C 24.7°C 0.0Kts E 0.0mm 1012.6hpa 0.5
07:07 22.1°C 89% 20.2°C 25.0°C 3.5Kts ENE 0.0mm 1012.6hpa 0.0
07:05 22.0°C 89% 20.1°C 24.8°C 3.5Kts ENE 0.0mm 1012.6hpa 0.0
07:03 21.9°C 89% 20.0°C 24.7°C 2.6Kts ENE 0.0mm 1012.6hpa 0.0
07:01 21.9°C 89% 20.0°C 25.0°C 2.6Kts ENE 0.0mm 1012.6hpa 0.0
06:59 21.8°C 90% 20.1°C 24.9°C 0.0Kts E 0.0mm 1012.5hpa 0.0
06:57 21.8°C 90% 20.1°C 24.9°C 2.6Kts ENE 0.0mm 1012.5hpa 0.0
06:55 21.8°C 91% 20.2°C 25.0°C 1.7Kts E 0.0mm 1012.5hpa 0.0
06:53 21.6°C 91% 20.1°C 24.7°C 0.0Kts E 0.0mm 1012.5hpa 0.0
06:51 21.4°C 92% 20.1°C 24.5°C 2.6Kts ENE 0.0mm 1012.5hpa 0.0
06:49 21.2°C 92% 19.9°C 24.2°C 0.0Kts ENE 0.0mm 1012.6hpa 0.0
06:47 21.1°C 92% 19.8°C 24.4°C 2.6Kts E 0.0mm 1012.5hpa 0.0
06:45 21.0°C 92% 19.6°C 24.2°C 2.6Kts E 0.0mm 1012.5hpa 0.0
06:43 20.9°C 93% 19.8°C 24.1°C 2.6Kts ENE 0.0mm 1012.5hpa 0.0
06:41 20.8°C 93% 19.7°C 24.3°C 0.9Kts ENE 0.0mm 1012.5hpa 0.0
06:39 20.8°C 93% 19.6°C 24.3°C 0.0Kts ENE 0.0mm 1012.4hpa 0.0
06:37 20.7°C 93% 19.5°C 24.2°C 0.0Kts ENE 0.0mm 1012.4hpa 0.0
06:35 20.7°C 93% 19.5°C 24.2°C 0.0Kts ENE 0.0mm 1012.5hpa 0.0
06:33 20.6°C 93% 19.4°C 24.0°C 0.0Kts ENE 0.0mm 1012.5hpa 0.0
06:31 20.3°C 93% 19.2°C 23.6°C 0.0Kts ENE 0.0mm 1012.5hpa 0.0
06:29 20.2°C 93% 19.0°C 23.4°C 0.0Kts ENE 0.0mm 1012.6hpa 0.0
06:27 19.9°C 93% 18.8°C 23.0°C 0.0Kts ENE 0.0mm 1012.6hpa 0.0
06:25 19.9°C 93% 18.7°C 23.0°C 0.0Kts ENE 0.0mm 1012.5hpa 0.0
06:23 19.8°C 93% 18.7°C 22.9°C 0.0Kts ENE 0.0mm 1012.4hpa 0.0
06:21 19.8°C 93% 18.7°C 22.9°C 0.0Kts ENE 0.0mm 1012.3hpa 0.0
06:19 19.8°C 93% 18.6°C 22.9°C 0.0Kts ENE 0.0mm 1012.3hpa 0.0
06:17 19.7°C 93% 18.6°C 22.7°C 0.0Kts ENE 0.0mm 1012.2hpa 0.0
06:15 19.7°C 93% 18.6°C 22.7°C 0.0Kts ENE 0.0mm 1012.2hpa 0.0
06:13 19.7°C 93% 18.6°C 22.7°C 0.0Kts ENE 0.0mm 1012.2hpa 0.0
06:11 19.7°C 93% 18.6°C 22.7°C 0.0Kts ENE 0.0mm 1012.1hpa 0.0
06:09 19.7°C 93% 18.6°C 22.7°C 0.0Kts ENE 0.0mm 1012.1hpa 0.0
06:07 19.7°C 93% 18.6°C 22.7°C 0.0Kts ENE 0.0mm 1012.0hpa 0.0
06:05 19.8°C 93% 18.6°C 22.9°C 0.0Kts ENE 0.0mm 1011.9hpa 0.0
06:03 19.8°C 93% 18.6°C 22.9°C 0.0Kts ENE 0.0mm 1011.8hpa 0.0
06:01 19.8°C 93% 18.6°C 22.9°C 0.0Kts ENE 0.0mm 1011.9hpa 0.0
05:59 19.8°C 93% 18.6°C 22.9°C 0.0Kts ENE 0.0mm 1011.8hpa 0.0
05:57 19.8°C 93% 18.6°C 22.9°C 0.0Kts ENE 0.0mm 1011.8hpa 0.0
05:55 19.7°C 93% 18.6°C 22.7°C 0.0Kts ENE 0.0mm 1011.7hpa 0.0
05:53 19.7°C 93% 18.6°C 22.7°C 0.9Kts ENE 0.0mm 1011.7hpa 0.0
05:51 19.7°C 93% 18.5°C 22.7°C 0.0Kts ENE 0.0mm 1011.7hpa 0.0
05:49 19.7°C 93% 18.6°C 22.7°C 0.0Kts ENE 0.0mm 1011.7hpa 0.0
05:47 19.7°C 93% 18.6°C 22.7°C 1.7Kts ENE 0.0mm 1011.7hpa 0.0
05:45 19.7°C 93% 18.6°C 22.7°C 0.0Kts ENE 0.0mm 1011.6hpa 0.0
05:43 19.7°C 93% 18.5°C 22.7°C 0.0Kts ENE 0.0mm 1011.6hpa 0.0
05:41 19.7°C 93% 18.5°C 22.7°C 0.0Kts ENE 0.0mm 1011.6hpa 0.0
05:39 19.7°C 93% 18.5°C 22.7°C 0.0Kts ENE 0.0mm 1011.6hpa 0.0
05:37 19.7°C 93% 18.5°C 22.7°C 0.0Kts ENE 0.0mm 1011.5hpa 0.0
05:35 19.7°C 92% 18.3°C 22.7°C 0.0Kts ENE 0.0mm 1011.5hpa 0.0
05:33 19.7°C 92% 18.3°C 22.7°C 0.0Kts ENE 0.0mm 1011.5hpa 0.0
05:31 19.7°C 93% 18.5°C 22.7°C 0.0Kts ENE 0.0mm 1011.4hpa 0.0
05:29 19.7°C 93% 18.5°C 22.7°C 0.0Kts ENE 0.0mm 1011.4hpa 0.0
05:27 19.7°C 92% 18.3°C 22.7°C 0.0Kts ENE 0.0mm 1011.4hpa 0.0
05:25 19.7°C 93% 18.5°C 22.7°C 0.0Kts ENE 0.0mm 1011.4hpa 0.0
05:23 19.7°C 93% 18.5°C 22.7°C 0.0Kts ENE 0.0mm 1011.4hpa 0.0
05:21 19.6°C 92% 18.3°C 22.5°C 1.7Kts ENE 0.0mm 1011.3hpa 0.0
05:19 19.6°C 92% 18.3°C 22.5°C 0.0Kts ENE 0.0mm 1011.2hpa 0.0
05:17 19.6°C 92% 18.3°C 22.5°C 0.0Kts ENE 0.0mm 1011.2hpa 0.0
05:15 19.6°C 92% 18.2°C 22.5°C 0.0Kts ENE 0.0mm 1011.2hpa 0.0
05:13 19.6°C 92% 18.2°C 22.5°C 0.0Kts ENE 0.0mm 1011.1hpa 0.0
05:11 19.6°C 92% 18.2°C 22.5°C 0.0Kts ENE 0.0mm 1011.0hpa 0.0
05:09 19.6°C 92% 18.2°C 22.5°C 0.0Kts ENE 0.0mm 1011.0hpa 0.0
05:07 19.6°C 92% 18.3°C 22.5°C 0.0Kts ESE 0.0mm 1011.0hpa 0.0
05:05 19.6°C 92% 18.3°C 22.5°C 1.7Kts ESE 0.0mm 1011.0hpa 0.0
05:03 19.6°C 92% 18.3°C 22.5°C 0.9Kts ESE 0.0mm 1011.0hpa 0.0
05:01 19.7°C 92% 18.3°C 22.7°C 0.0Kts ESE 0.0mm 1011.0hpa 0.0
04:59 19.7°C 92% 18.3°C 22.7°C 0.0Kts ESE 0.0mm 1011.0hpa 0.0
04:57 19.7°C 92% 18.3°C 22.7°C 0.0Kts ESE 0.0mm 1010.9hpa 0.0
04:55 19.6°C 92% 18.3°C 22.5°C 0.0Kts ESE 0.0mm 1010.8hpa 0.0
04:53 19.6°C 92% 18.3°C 22.5°C 0.0Kts E 0.0mm 1010.8hpa 0.0
04:51 19.6°C 92% 18.3°C 22.5°C 0.0Kts E 0.0mm 1010.8hpa 0.0
04:49 19.6°C 92% 18.3°C 22.5°C 0.0Kts E 0.0mm 1010.8hpa 0.0
04:47 19.7°C 92% 18.3°C 22.7°C 0.0Kts E 0.0mm 1010.8hpa 0.0
04:45 19.7°C 92% 18.3°C 22.7°C 0.0Kts E 0.0mm 1010.8hpa 0.0
04:43 19.7°C 92% 18.3°C 22.7°C 0.0Kts E 0.0mm 1010.8hpa 0.0
04:41 19.7°C 92% 18.4°C 22.7°C 0.0Kts E 0.0mm 1010.8hpa 0.0
04:39 19.7°C 92% 18.4°C 22.7°C 0.0Kts E 0.0mm 1010.8hpa 0.0
04:37 19.7°C 92% 18.4°C 22.7°C 0.0Kts E 0.0mm 1010.8hpa 0.0
04:35 19.7°C 92% 18.3°C 22.7°C 0.9Kts E 0.0mm 1010.8hpa 0.0
04:33 19.7°C 92% 18.4°C 22.7°C 0.0Kts E 0.0mm 1010.8hpa 0.0
04:31 19.7°C 92% 18.4°C 22.7°C 0.0Kts E 0.0mm 1010.8hpa 0.0
04:29 19.7°C 92% 18.4°C 22.7°C 0.0Kts E 0.0mm 1010.8hpa 0.0
04:27 19.8°C 92% 18.4°C 22.5°C 0.0Kts E 0.0mm 1010.8hpa 0.0
04:25 19.8°C 92% 18.4°C 22.5°C 0.0Kts E 0.0mm 1010.8hpa 0.0
04:23 19.7°C 92% 18.4°C 22.3°C 0.9Kts E 0.0mm 1010.8hpa 0.0
04:21 19.8°C 92% 18.4°C 22.5°C 0.0Kts ENE 0.0mm 1010.7hpa 0.0
04:19 19.7°C 92% 18.4°C 22.3°C 0.0Kts ENE 0.0mm 1010.7hpa 0.0
04:17 19.7°C 92% 18.4°C 22.7°C 1.7Kts ENE 0.0mm 1010.7hpa 0.0
04:15 19.7°C 92% 18.3°C 22.7°C 0.0Kts ENE 0.0mm 1010.7hpa 0.0
04:13 19.7°C 92% 18.3°C 22.7°C 2.6Kts E 0.0mm 1010.6hpa 0.0
04:11 19.7°C 92% 18.3°C 22.7°C 0.0Kts E 0.0mm 1010.7hpa 0.0
04:09 19.7°C 92% 18.4°C 22.7°C 0.0Kts E 0.0mm 1010.7hpa 0.0
04:07 19.7°C 92% 18.4°C 22.7°C 0.0Kts E 0.0mm 1010.6hpa 0.0
04:05 19.7°C 92% 18.3°C 22.7°C 0.0Kts E 0.0mm 1010.7hpa 0.0
04:03 19.7°C 92% 18.3°C 22.7°C 0.9Kts ENE 0.0mm 1010.6hpa 0.0
04:01 19.7°C 92% 18.3°C 22.7°C 1.7Kts ENE 0.0mm 1010.6hpa 0.0
03:59 19.7°C 92% 18.3°C 22.7°C 0.0Kts ENE 0.0mm 1010.6hpa 0.0
03:57 19.7°C 91% 18.2°C 22.6°C 0.0Kts ENE 0.0mm 1010.6hpa 0.0
03:55 19.7°C 91% 18.2°C 22.6°C 1.7Kts E 0.0mm 1010.6hpa 0.0
03:53 19.7°C 91% 18.2°C 22.6°C 0.0Kts E 0.0mm 1010.6hpa 0.0
03:51 19.7°C 91% 18.2°C 22.6°C 0.0Kts E 0.0mm 1010.6hpa 0.0
03:49 19.7°C 91% 18.2°C 22.6°C 0.0Kts E 0.0mm 1010.7hpa 0.0
03:47 19.8°C 91% 18.3°C 22.7°C 0.0Kts E 0.0mm 1010.6hpa 0.0
03:45 19.8°C 91% 18.3°C 22.7°C 0.0Kts E 0.0mm 1010.6hpa 0.0
03:43 19.8°C 91% 18.3°C 22.7°C 0.0Kts E 0.0mm 1010.6hpa 0.0
03:41 19.8°C 91% 18.3°C 22.7°C 0.0Kts E 0.0mm 1010.6hpa 0.0
03:39 19.8°C 91% 18.3°C 22.4°C 0.0Kts E 0.0mm 1010.6hpa 0.0
03:37 19.8°C 92% 18.5°C 22.5°C 0.0Kts E 0.0mm 1010.5hpa 0.0
03:35 19.8°C 92% 18.5°C 22.5°C 0.0Kts E 0.0mm 1010.5hpa 0.0
03:33 19.8°C 91% 18.3°C 22.4°C 0.0Kts E 0.0mm 1010.5hpa 0.0
03:31 19.8°C 91% 18.3°C 22.4°C 0.0Kts E 0.0mm 1010.6hpa 0.0
03:29 19.9°C 91% 18.4°C 22.5°C 1.7Kts E 0.0mm 1010.6hpa 0.0
03:27 19.8°C 91% 18.3°C 22.4°C 0.0Kts E 0.0mm 1010.6hpa 0.0
03:25 19.8°C 91% 18.3°C 22.4°C 3.5Kts ENE 0.0mm 1010.6hpa 0.0
03:23 19.8°C 91% 18.3°C 22.4°C 0.0Kts ENE 0.0mm 1010.6hpa 0.0
03:21 19.8°C 91% 18.3°C 22.4°C 0.0Kts ENE 0.0mm 1010.6hpa 0.0
03:19 19.8°C 91% 18.3°C 22.4°C 0.9Kts ENE 0.0mm 1010.6hpa 0.0
03:17 19.9°C 91% 18.4°C 22.5°C 0.0Kts ENE 0.0mm 1010.6hpa 0.0
03:15 19.9°C 91% 18.4°C 22.5°C 1.7Kts ENE 0.0mm 1010.6hpa 0.0
03:13 19.9°C 91% 18.4°C 22.5°C 2.6Kts ENE 0.0mm 1010.7hpa 0.0
03:11 19.9°C 91% 18.4°C 22.5°C 0.9Kts ENE 0.0mm 1010.7hpa 0.0
03:09 19.9°C 91% 18.4°C 22.5°C 1.7Kts ENE 0.0mm 1010.8hpa 0.0
03:07 19.9°C 91% 18.4°C 22.5°C 0.0Kts ENE 0.0mm 1010.8hpa 0.0
03:05 19.9°C 91% 18.4°C 22.5°C 0.0Kts ENE 0.0mm 1010.8hpa 0.0
03:03 20.0°C 91% 18.5°C 22.7°C 0.0Kts E 0.0mm 1010.9hpa 0.0
03:01 20.0°C 91% 18.5°C 22.4°C 0.9Kts E 0.0mm 1010.9hpa 0.0
02:59 20.0°C 91% 18.5°C 22.4°C 0.0Kts E 0.0mm 1010.9hpa 0.0
02:57 20.0°C 91% 18.5°C 22.7°C 3.5Kts E 0.0mm 1010.9hpa 0.0
02:55 20.1°C 91% 18.5°C 22.5°C 0.9Kts ENE 0.0mm 1010.9hpa 0.0
02:53 20.1°C 91% 18.5°C 22.8°C 0.0Kts ENE 0.0mm 1010.9hpa 0.0
02:51 20.1°C 91% 18.5°C 22.8°C 0.0Kts ENE 0.0mm 1010.9hpa 0.0
02:49 20.1°C 91% 18.5°C 22.8°C 0.9Kts ENE 0.0mm 1010.9hpa 0.0
02:47 20.1°C 91% 18.6°C 22.8°C 1.7Kts ENE 0.0mm 1011.0hpa 0.0
02:45 20.1°C 91% 18.6°C 22.8°C 0.0Kts ENE 0.0mm 1011.0hpa 0.0
02:43 20.2°C 91% 18.7°C 23.0°C 0.9Kts ENE 0.0mm 1010.9hpa 0.0
02:41 20.2°C 91% 18.7°C 22.7°C 0.9Kts ENE 0.0mm 1010.9hpa 0.0
02:39 20.2°C 91% 18.7°C 23.0°C 0.9Kts E 0.0mm 1010.9hpa 0.0
02:37 20.2°C 91% 18.7°C 23.0°C 0.9Kts E 0.0mm 1010.8hpa 0.0
02:35 20.2°C 91% 18.7°C 23.0°C 0.9Kts E 0.0mm 1010.8hpa 0.0
02:33 20.3°C 91% 18.8°C 23.1°C 0.9Kts ENE 0.0mm 1010.9hpa 0.0
02:31 20.3°C 91% 18.8°C 23.1°C 1.7Kts E 0.0mm 1011.0hpa 0.0
02:29 20.3°C 91% 18.8°C 23.1°C 0.9Kts ENE 0.0mm 1011.0hpa 0.0
02:27 20.3°C 91% 18.8°C 23.1°C 3.5Kts ENE 0.0mm 1011.0hpa 0.0
02:25 20.3°C 91% 18.8°C 23.1°C 0.0Kts ENE 0.0mm 1011.0hpa 0.0
02:23 20.4°C 91% 18.9°C 23.3°C 0.0Kts E 0.0mm 1011.1hpa 0.0
02:21 20.4°C 91% 18.9°C 23.3°C 3.5Kts ENE 0.0mm 1011.1hpa 0.0
02:19 20.4°C 91% 18.9°C 23.3°C 0.9Kts ENE 0.0mm 1011.1hpa 0.0
02:17 20.4°C 91% 18.9°C 23.0°C 0.0Kts ENE 0.0mm 1011.2hpa 0.0
02:15 20.4°C 90% 18.7°C 23.2°C 1.7Kts ENE 0.0mm 1011.2hpa 0.0
02:13 20.5°C 90% 18.8°C 23.3°C 1.7Kts ENE 0.0mm 1011.2hpa 0.0
02:11 20.5°C 90% 18.8°C 23.3°C 0.9Kts E 0.0mm 1011.2hpa 0.0
02:09 20.5°C 90% 18.8°C 23.3°C 1.7Kts E 0.0mm 1011.4hpa 0.0
02:07 20.6°C 90% 18.9°C 23.5°C 0.0Kts ENE 0.0mm 1011.4hpa 0.0
02:05 20.6°C 91% 19.0°C 23.5°C 0.0Kts E 0.0mm 1011.4hpa 0.0
02:03 20.6°C 91% 19.0°C 23.3°C 0.0Kts ENE 0.0mm 1011.4hpa 0.0
02:01 20.6°C 91% 19.1°C 23.3°C 0.9Kts E 0.0mm 1011.3hpa 0.0
01:59 20.6°C 91% 19.1°C 23.5°C 0.0Kts ENE 0.0mm 1011.4hpa 0.0
01:57 20.7°C 90% 19.0°C 23.6°C 1.7Kts ENE 0.0mm 1011.5hpa 0.0
01:55 20.7°C 90% 19.0°C 23.6°C 0.9Kts ENE 0.0mm 1011.5hpa 0.0
01:53 20.7°C 91% 19.1°C 23.7°C 1.7Kts E 0.0mm 1011.6hpa 0.0
01:51 20.7°C 91% 19.2°C 23.7°C 0.9Kts NE 0.0mm 1011.6hpa 0.0
01:49 20.7°C 91% 19.2°C 23.7°C 0.0Kts NE 0.0mm 1011.7hpa 0.0
01:47 20.7°C 91% 19.2°C 23.7°C 0.0Kts NE 0.0mm 1011.7hpa 0.0
01:45 20.7°C 91% 19.2°C 23.7°C 0.0Kts E 0.0mm 1011.7hpa 0.0
01:43 20.7°C 91% 19.2°C 23.7°C 0.0Kts E 0.0mm 1011.8hpa 0.0
01:41 20.7°C 91% 19.1°C 23.7°C 0.9Kts E 0.0mm 1011.8hpa 0.0
01:39 20.7°C 91% 19.1°C 23.7°C 1.7Kts E 0.0mm 1011.8hpa 0.0
01:37 20.7°C 91% 19.1°C 23.7°C 0.0Kts ENE 0.0mm 1011.8hpa 0.0
01:35 20.7°C 91% 19.1°C 23.7°C 1.7Kts ENE 0.0mm 1011.8hpa 0.0
01:33 20.7°C 91% 19.1°C 23.7°C 2.6Kts ENE 0.0mm 1011.8hpa 0.0
01:31 20.7°C 91% 19.1°C 23.7°C 1.7Kts ENE 0.0mm 1011.8hpa 0.0
01:29 20.7°C 91% 19.1°C 23.7°C 0.0Kts E 0.0mm 1011.8hpa 0.0
01:27 20.7°C 91% 19.1°C 23.7°C 0.0Kts E 0.0mm 1011.8hpa 0.0
01:25 20.7°C 91% 19.1°C 23.4°C 2.6Kts E 0.0mm 1011.9hpa 0.0
01:23 20.7°C 91% 19.1°C 23.4°C 0.9Kts ENE 0.0mm 1011.9hpa 0.0
01:21 20.7°C 91% 19.1°C 23.4°C 0.9Kts ENE 0.0mm 1011.9hpa 0.0
01:19 20.7°C 91% 19.1°C 23.4°C 0.9Kts ENE 0.0mm 1011.9hpa 0.0
01:17 20.6°C 91% 19.1°C 23.3°C 2.6Kts ENE 0.0mm 1011.9hpa 0.0
01:15 20.6°C 91% 19.1°C 23.5°C 0.9Kts ENE 0.0mm 1012.0hpa 0.0
01:13 20.6°C 91% 19.1°C 23.5°C 2.6Kts E 0.0mm 1012.0hpa 0.0
01:11 20.6°C 91% 19.1°C 23.3°C 1.7Kts E 0.0mm 1011.9hpa 0.0
01:09 20.6°C 91% 19.1°C 23.3°C 0.0Kts E 0.0mm 1011.9hpa 0.0
01:07 20.6°C 91% 19.1°C 23.3°C 1.7Kts ENE 0.0mm 1011.8hpa 0.0
01:05 20.6°C 91% 19.1°C 23.3°C 0.0Kts ENE 0.0mm 1011.8hpa 0.0
01:03 20.6°C 91% 19.0°C 23.3°C 0.9Kts ENE 0.0mm 1011.9hpa 0.0
01:01 20.6°C 91% 19.1°C 23.3°C 3.5Kts ENE 0.0mm 1011.9hpa 0.0
00:59 20.6°C 91% 19.0°C 23.3°C 0.0Kts ENE 0.0mm 1011.9hpa 0.0
00:57 20.6°C 91% 19.0°C 23.5°C 2.6Kts ENE 0.0mm 1011.9hpa 0.0
00:55 20.6°C 91% 19.0°C 23.5°C 1.7Kts ENE 0.0mm 1012.0hpa 0.0
00:53 20.6°C 91% 19.0°C 23.3°C 1.7Kts ENE 0.0mm 1012.0hpa 0.0
00:51 20.5°C 91% 19.0°C 23.1°C 2.6Kts ENE 0.0mm 1012.0hpa 0.0
00:49 20.5°C 91% 19.0°C 23.1°C 0.0Kts ENE 0.0mm 1012.0hpa 0.0
00:47 20.5°C 91% 19.0°C 23.1°C 2.6Kts ENE 0.0mm 1012.1hpa 0.0
00:45 20.4°C 91% 18.9°C 23.0°C 1.7Kts ENE 0.0mm 1012.1hpa 0.0
00:43 20.4°C 91% 18.9°C 23.0°C 1.7Kts ENE 0.0mm 1012.2hpa 0.0
00:41 20.5°C 91% 19.0°C 23.1°C 1.7Kts ENE 0.0mm 1012.1hpa 0.0
00:39 20.4°C 90% 18.7°C 22.9°C 0.9Kts ENE 0.0mm 1012.1hpa 0.0
00:37 20.4°C 90% 18.7°C 22.9°C 2.6Kts ENE 0.0mm 1012.1hpa 0.0
00:35 20.5°C 90% 18.8°C 23.3°C 2.6Kts ENE 0.0mm 1012.2hpa 0.0
00:33 20.5°C 91% 19.0°C 23.4°C 2.6Kts ENE 0.0mm 1012.3hpa 0.0
00:31 20.5°C 91% 19.0°C 23.4°C 1.7Kts E 0.0mm 1012.3hpa 0.0
00:29 20.5°C 91% 19.0°C 23.4°C 1.7Kts E 0.0mm 1012.4hpa 0.0
00:27 20.4°C 91% 18.9°C 23.3°C 0.9Kts E 0.0mm 1012.4hpa 0.0
00:25 20.4°C 91% 18.9°C 23.3°C 0.9Kts ENE 0.0mm 1012.4hpa 0.0
00:23 20.4°C 91% 18.9°C 23.0°C 0.0Kts ENE 0.0mm 1012.4hpa 0.0
00:21 20.4°C 91% 18.9°C 23.0°C 1.7Kts E 0.0mm 1012.5hpa 0.0
00:19 20.4°C 91% 18.9°C 23.0°C 0.9Kts ENE 0.0mm 1012.5hpa 0.0
00:17 20.4°C 91% 18.9°C 23.0°C 0.9Kts ENE 0.0mm 1012.5hpa 0.0
00:15 20.4°C 91% 18.9°C 23.0°C 3.5Kts ENE 0.0mm 1012.5hpa 0.0
00:13 20.4°C 91% 18.9°C 23.0°C 3.5Kts E 0.0mm 1012.5hpa 0.0
00:11 20.4°C 91% 18.9°C 23.0°C 0.0Kts ENE 0.0mm 1012.6hpa 0.0
00:09 20.4°C 91% 18.9°C 23.0°C 0.9Kts ENE 0.0mm 1012.6hpa 0.0
00:07 20.4°C 91% 18.9°C 23.0°C 2.6Kts ENE 0.0mm 1012.6hpa 0.0
00:05 20.4°C 91% 18.9°C 23.0°C 1.7Kts E 0.0mm 1012.7hpa 0.0
00:03 20.4°C 91% 18.9°C 23.0°C 0.9Kts ENE 0.0mm 1012.7hpa 0.0
00:01 20.4°C 91% 18.9°C 23.0°C 1.7Kts E 0.0mm 1012.8hpa 0.0